N6TKA Weather Reports


time (UTC)temp
C
wind
direction
speed
KPH
gust
KPH
rain 1hr
cm
rain 24hr
cm
rain mn
cm
humidity
%
barometer
mb
20260507151828 27 30 0.0 0.0 0.00 0.00 0.00 25 1013.6
20260507151328 26 30 0.0 0.0 0.00 0.00 0.00 25 1013.7
20260507151055 26 30 0.0 0.0 0.00 0.00 0.00 24 1013.7
20260507150327 26 30 0.0 0.0 0.00 0.00 0.00 26 1013.7
20260507150055 26 30 0.0 0.0 0.00 0.00 0.00 26 1013.7
20260507145325 25 30 0.0 0.0 0.00 0.00 0.00 26 1013.8
20260507144826 25 30 0.0 0.0 0.00 0.00 0.00 26 1013.7
20260507144526 25 30 0.0 0.0 0.00 0.00 0.00 25 1013.8
20260507144417 25 30 0.0 0.0 0.00 0.00 0.00 26 1013.7
20260507143325 25 30 0.0 0.0 0.00 0.00 0.00 26 1013.8
20260507142825 25 30 0.0 0.0 0.00 0.00 0.00 26 1013.8
20260507142325 25 29 0.0 0.0 0.00 0.00 0.00 26 1013.7
20260507141826 25 29 0.0 14.5 0.00 0.00 0.00 26 1013.7
20260507141327 24 29 0.0 14.5 0.00 0.00 0.00 23 1013.7
20260507141052 24 350 0.0 0.0 0.00 0.00 0.00 23 1013.6
20260507140325 23 349 0.0 0.0 0.00 0.00 0.00 24 1013.6
20260507135825 23 348 0.0 1.6 0.00 0.00 0.00 25 1013.6
20260507135323 23 348 0.0 1.6 0.00 0.00 0.00 25 1013.6
20260507134825 23 347 0.0 0.0 0.00 0.00 0.00 26 1013.6
20260507134324 22 347 0.0 1.6 0.00 0.00 0.00 27 1013.5
20260507133824 22 347 0.0 1.6 0.00 0.00 0.00 27 1013.4
20260507133323 22 347 0.0 0.0 0.00 0.00 0.00 28 1013.3
20260507133046 21 347 0.0 0.0 0.00 0.00 0.00 29 1013.3
20260507132324 21 347 0.0 0.0 0.00 0.00 0.00 29 1013.2
20260507131823 21 347 0.0 0.0 0.00 0.00 0.00 29 1013.2
20260507131547 21 347 0.0 0.0 0.00 0.00 0.00 29 1013.2
20260507130822 21 347 0.0 0.0 0.00 0.00 0.00 29 1013.2
20260507130545 21 347 0.0 4.8 0.00 0.00 0.00 29 1013.1
20260507125821 21 347 1.6 8.0 0.00 0.00 0.00 29 1013.1
20260507125541 21 347 0.0 8.0 0.00 0.00 0.00 30 1013.0
20260507124821 20 345 0.0 0.0 0.00 0.00 0.00 30 1013.0
20260507124322 20 345 0.0 0.0 0.00 0.00 0.00 30 1012.9
20260507124053 20 341 1.6 8.0 0.00 0.00 0.00 31 1013.0
20260507123322 20 341 3.2 8.0 0.00 0.00 0.00 31 1012.9
20260507122820 19 341 1.6 6.4 0.00 0.00 0.00 32 1013.0
20260507122321 19 341 0.0 0.0 0.00 0.00 0.00 32 1012.9
20260507121822 19 341 0.0 0.0 0.00 0.00 0.00 32 1013.0
20260507121322 19 341 0.0 0.0 0.00 0.00 0.00 32 1012.9
20260507121033 19 341 0.0 0.0 0.00 0.00 0.00 31 1012.9
20260507120914 19 341 0.0 0.0 0.00 0.00 0.00 31 1012.9
20260507115820 20 341 0.0 0.0 0.00 0.00 0.00 31 1013.0
20260507115534 20 341 0.0 0.0 0.00 0.00 0.00 30 1013.1
20260507115035 20 341 0.0 0.0 0.00 0.00 0.00 30 1013.2
20260507114313 20 341 0.0 0.0 0.00 0.00 0.00 30 1013.3
20260507113812 20 341 0.0 0.0 0.00 0.00 0.00 30 1013.3
20260507113312 19 341 0.0 6.4 0.00 0.00 0.00 31 1013.3
20260507112811 19 341 0.0 12.9 0.00 0.00 0.00 32 1013.4
20260507112309 18 339 0.0 12.9 0.00 0.00 0.00 34 1013.4
20260507111807 18 205 0.0 1.6 0.00 0.00 0.00 35 1013.4
20260507111305 18 205 0.0 1.6 0.00 0.00 0.00 37 1013.4
20260507111014 17 205 0.0 0.0 0.00 0.00 0.00 37 1013.5
20260507110858 17 205 0.0 0.0 0.00 0.00 0.00 37 1013.5
20260507105808 17 205 0.0 0.0 0.00 0.00 0.00 37 1013.5
20260507105309 17 205 0.0 0.0 0.00 0.00 0.00 37 1013.7
20260507104809 17 205 0.0 0.0 0.00 0.00 0.00 37 1013.7
20260507104308 17 205 0.0 0.0 0.00 0.00 0.00 39 1013.7
20260507103807 17 205 0.0 0.0 0.00 0.00 0.00 39 1013.8
20260507103308 18 205 0.0 0.0 0.00 0.00 0.00 39 1013.7
20260507102809 18 205 0.0 0.0 0.00 0.00 0.00 39 1013.8
20260507102309 18 205 0.0 0.0 0.00 0.00 0.00 38 1013.8
20260507101807 18 205 0.0 0.0 0.00 0.00 0.00 38 1013.7
20260507101258 18 205 0.0 0.0 0.00 0.00 0.00 37 1013.7
20260507100754 18 205 0.0 0.0 0.00 0.00 0.00 36 1013.7
20260507100254 18 205 0.0 0.0 0.00 0.00 0.00 35 1013.7
20260507095755 18 205 0.0 0.0 0.00 0.00 0.00 36 1013.7
20260507095255 18 205 0.0 0.0 0.00 0.00 0.00 37 1013.8
20260507094758 18 205 0.0 0.0 0.00 0.00 0.00 37 1013.7
20260507094255 18 205 0.0 0.0 0.00 0.00 0.00 37 1013.8
20260507093756 18 205 0.0 0.0 0.00 0.00 0.00 36 1013.8
20260507093254 18 205 0.0 0.0 0.00 0.00 0.00 36 1013.8
20260507093242 18 205 0.0 0.0 0.00 0.00 0.00 37 1013.7
20260507092252 18 205 0.0 0.0 0.00 0.00 0.00 39 1013.7
20260507091749 18 205 0.0 0.0 0.00 0.00 0.00 38 1013.7
20260507091253 18 205 0.0 0.0 0.00 0.00 0.00 38 1013.7
20260507090750 18 205 0.0 0.0 0.00 0.00 0.00 39 1013.7
20260507090250 18 205 0.0 0.0 0.00 0.00 0.00 39 1013.7
20260507085752 18 205 0.0 0.0 0.00 0.00 0.00 39 1013.7
20260507085251 18 205 0.0 0.0 0.00 0.00 0.00 40 1013.7
20260507084751 18 205 0.0 0.0 0.00 0.00 0.00 40 1013.7
20260507084253 18 205 0.0 0.0 0.00 0.00 0.00 41 1013.7
20260507083751 18 205 0.0 0.0 0.00 0.00 0.00 43 1013.8
20260507083736 18 205 0.0 0.0 0.00 0.00 0.00 42 1013.9
20260507083016 19 205 0.0 0.0 0.00 0.00 0.00 39 1014.0
20260507082251 19 205 0.0 0.0 0.00 0.00 0.00 38 1014.0
20260507081751 19 205 0.0 0.0 0.00 0.00 0.00 37 1014.0
20260507081251 19 205 0.0 0.0 0.00 0.00 0.00 37 1013.9
20260507080750 19 205 0.0 0.0 0.00 0.00 0.00 35 1013.9
20260507080250 19 205 0.0 0.0 0.00 0.00 0.00 35 1013.9
20260507075750 20 205 0.0 0.0 0.00 0.00 0.00 35 1013.9
20260507075252 20 205 0.0 0.0 0.00 0.00 0.00 35 1013.9
20260507074752 20 205 0.0 0.0 0.00 0.00 0.00 35 1014.0
20260507074251 20 205 0.0 0.0 0.00 0.00 0.00 35 1013.9
20260507074009 20 205 0.0 0.0 0.00 0.00 0.00 34 1014.0
20260507073249 20 205 0.0 0.0 0.00 0.00 0.00 34 1014.0
20260507072748 20 205 0.0 0.0 0.00 0.00 0.00 33 1014.0
20260507072737 20 205 0.0 0.0 0.00 0.00 0.00 34 1014.0
20260507071749 21 205 0.0 0.0 0.00 0.00 0.00 34 1014.1
20260507071248 21 205 0.0 0.0 0.00 0.00 0.00 33 1014.0
20260507071014 21 205 0.0 0.0 0.00 0.00 0.00 32 1013.8
20260507070250 21 205 0.0 0.0 0.00 0.00 0.00 30 1013.9
20260507065750 21 205 0.0 1.6 0.00 0.00 0.00 30 1014.1
20260507065512 22 205 0.0 1.6 0.00 0.00 0.00 30 1014.0
20260507065009 22 205 0.0 0.0 0.00 0.00 0.00 28 1013.9
20260507064250 22 205 0.0 0.0 0.00 0.00 0.00 27 1013.9
20260507063750 22 205 0.0 0.0 0.00 0.00 0.00 26 1013.9
20260507063251 22 205 0.0 0.0 0.00 0.00 0.00 26 1013.9
20260507062747 22 205 0.0 0.0 0.00 0.00 0.00 26 1013.9
20260507062249 22 205 0.0 0.0 0.00 0.00 0.00 26 1013.9
20260507061748 22 205 0.0 0.0 0.00 0.00 0.00 26 1014.0
20260507061249 22 205 0.0 0.0 0.00 0.00 0.00 26 1013.9
20260507060749 22 205 0.0 0.0 0.00 0.00 0.00 26 1014.0
20260507060248 22 205 0.0 0.0 0.00 0.00 0.00 26 1013.9
20260507060222 22 205 0.0 0.0 0.00 0.00 0.00 26 1013.8
20260507055246 22 205 0.0 0.0 0.00 0.00 0.00 26 1013.9
20260507054745 23 205 0.0 0.0 0.00 0.00 0.00 26 1014.0
20260507054246 23 205 0.0 0.0 0.00 0.00 0.00 26 1014.0
20260507053745 23 205 0.0 0.0 0.00 0.00 0.00 25 1014.0
20260507053247 23 205 0.0 0.0 0.00 0.00 0.00 25 1014.0
20260507052747 23 205 0.0 0.0 0.00 0.00 0.00 25 1014.0
20260507052247 23 205 0.0 0.0 0.00 0.00 0.00 25 1014.0
20260507051747 23 205 0.0 0.0 0.00 0.00 0.00 25 1014.0
20260507051245 23 205 0.0 0.0 0.00 0.00 0.00 25 1014.0
20260507051007 23 205 0.0 0.0 0.00 0.00 0.00 25 1014.0
20260507050243 23 205 0.0 0.0 0.00 0.00 0.00 25 1014.0
20260507045743 23 205 0.0 0.0 0.00 0.00 0.00 25 1014.0
20260507045243 23 205 0.0 0.0 0.00 0.00 0.00 26 1013.8
20260507045009 23 205 0.0 0.0 0.00 0.00 0.00 26 1013.8
20260507044724 23 205 0.0 0.0 0.00 0.00 0.00 26 1013.8
20260507043745 23 205 0.0 0.0 0.00 0.00 0.00 26 1013.8
20260507043244 23 205 0.0 0.0 0.00 0.00 0.00 25 1013.8
20260507042744 24 205 0.0 0.0 0.00 0.00 0.00 25 1013.7
20260507042244 24 205 0.0 0.0 0.00 0.00 0.00 24 1013.6
20260507041745 24 205 0.0 0.0 0.00 0.00 0.00 24 1013.6
20260507041244 25 205 0.0 0.0 0.00 0.00 0.00 24 1013.5
20260507040741 25 205 0.0 0.0 0.00 0.00 0.00 24 1013.4
20260507040242 25 205 0.0 0.0 0.00 0.00 0.00 24 1013.4
20260507035741 25 205 0.0 0.0 0.00 0.00 0.00 24 1013.3
20260507035500 25 205 0.0 0.0 0.00 0.00 0.00 23 1013.2
20260507034741 25 205 0.0 0.0 0.00 0.00 0.00 23 1013.2
20260507034242 25 205 0.0 0.0 0.00 0.00 0.00 23 1013.1
20260507033743 25 205 0.0 0.0 0.00 0.00 0.00 22 1013.0
20260507033242 25 205 0.0 0.0 0.00 0.00 0.00 22 1012.9
20260507033000 26 205 0.0 0.0 0.00 0.00 0.00 22 1013.0
20260507032241 26 205 0.0 0.0 0.00 0.00 0.00 22 1012.8
20260507032002 26 205 0.0 0.0 0.00 0.00 0.00 22 1012.7
20260507031238 26 205 0.0 0.0 0.00 0.00 0.00 22 1012.6
20260507031010 26 205 0.0 0.0 0.00 0.00 0.00 21 1012.5
20260507030239 26 205 0.0 0.0 0.00 0.00 0.00 21 1012.4
20260507025738 26 204 0.0 0.0 0.00 0.00 0.00 21 1012.4
20260507025239 26 204 0.0 0.0 0.00 0.00 0.00 21 1012.4
20260507024740 26 204 0.0 4.8 0.00 0.00 0.00 21 1012.3
20260507024240 26 204 0.0 6.4 0.00 0.00 0.00 21 1012.3
20260507023740 26 207 1.6 11.3 0.00 0.00 0.00 21 1012.2
20260507023240 26 208 4.8 14.5 0.00 0.00 0.00 21 1012.2
20260507022742 27 209 3.2 14.5 0.00 0.00 0.00 21 1012.2
20260507022238 27 201 0.0 9.7 0.00 0.00 0.00 21 1012.1
20260507022223 27 198 0.0 16.1 0.00 0.00 0.00 20 1012.1
20260507021239 27 224 0.0 16.1 0.00 0.00 0.00 20 1011.9
20260507020738 27 215 0.0 6.4 0.00 0.00 0.00 20 1011.9
20260507020238 27 219 0.0 6.4 0.00 0.00 0.00 20 1011.9
20260507015735 27 227 0.0 6.4 0.00 0.00 0.00 20 1011.9
20260507015235 27 205 3.2 12.9 0.00 0.00 0.00 20 1011.9
20260507014958 27 223 4.8 16.1 0.00 0.00 0.00 20 1011.9
20260507014506 27 208 3.2 16.1 0.00 0.00 0.00 20 1011.8
20260507013735 28 238 0.0 4.8 0.00 0.00 0.00 20 1011.8
20260507013235 28 217 0.0 8.0 0.00 0.00 0.00 19 1011.8
20260507012955 28 221 3.2 16.1 0.00 0.00 0.00 19 1011.8
20260507012235 28 211 3.2 16.1 0.00 0.00 0.00 19 1011.8
20260507011736 28 210 3.2 16.1 0.00 0.00 0.00 19 1011.8
20260507011236 28 229 3.2 19.3 0.00 0.00 0.00 19 1011.9
20260507011004 28 207 1.6 19.3 0.00 0.00 0.00 19 1011.8
20260507010237 29 219 0.0 12.9 0.00 0.00 0.00 19 1011.8
20260507005736 29 234 0.0 12.9 0.00 0.00 0.00 19 1011.8
20260507005238 29 234 1.6 12.9 0.00 0.00 0.00 18 1011.9
20260507004737 29 209 4.8 16.1 0.00 0.00 0.00 19 1011.8
20260507004236 29 215 6.4 17.7 0.00 0.00 0.00 19 1011.7
20260507003736 29 221 4.8 17.7 0.00 0.00 0.00 19 1011.7
20260507003236 29 234 3.2 19.3 0.00 0.00 0.00 19 1011.8
20260507002735 30 227 1.6 19.3 0.00 0.00 0.00 18 1011.7
20260507002234 30 216 1.6 16.1 0.00 0.00 0.00 18 1011.7
20260507001736 30 215 1.6 16.1 0.00 0.00 0.00 18 1011.8
20260507001234 30 238 1.6 12.9 0.00 0.00 0.00 18 1011.8
20260507000733 30 250 1.6 12.9 0.00 0.00 0.00 18 1011.7
20260507000459 30 240 1.6 12.9 0.00 0.00 0.00 18 1011.7
20260506235734 30 201 3.2 17.7 0.00 0.00 0.00 18 1011.7
20260506235234 30 173 3.2 17.7 0.00 0.00 0.00 18 1011.7
20260506234735 30 225 1.6 17.7 0.00 0.00 0.00 18 1011.9
20260506234235 30 154 0.0 3.2 0.00 0.00 0.00 18 1011.8
20260506233734 30 213 0.0 9.7 0.00 0.00 0.00 18 1011.9
20260506233234 30 214 1.6 11.3 0.00 0.00 0.00 18 1012.1
20260506232955 30 214 0.0 11.3 0.00 0.00 0.00 18 1012.2
20260506232234 30 296 0.0 6.4 0.00 0.00 0.00 18 1012.2
20260506231958 30 295 0.0 9.7 0.00 0.00 0.00 18 1012.2
20260506231235 30 232 1.6 12.9 0.00 0.00 0.00 18 1012.3
20260506231217 30 214 0.0 12.9 0.00 0.00 0.00 18 1012.3
20260506230234 30 188 0.0 8.0 0.00 0.00 0.00 18 1012.3
20260506225733 30 144 0.0 17.7 0.00 0.00 0.00 18 1012.4
20260506225234 30 246 0.0 17.7 0.00 0.00 0.00 18 1012.5
20260506224732 30 320 0.0 1.6 0.00 0.00 0.00 18 1012.5
20260506224231 30 15 0.0 1.6 0.00 0.00 0.00 18 1012.6
20260506223733 30 268 1.6 14.5 0.00 0.00 0.00 18 1012.7
20260506223233 30 210 1.6 14.5 0.00 0.00 0.00 19 1012.6
20260506222733 30 305 0.0 4.8 0.00 0.00 0.00 18 1012.7
20260506222233 30 238 0.0 4.8 0.00 0.00 0.00 18 1012.7
20260506221955 30 216 3.2 19.3 0.00 0.00 0.00 18 1012.8
20260506221231 30 219 4.8 22.5 0.00 0.00 0.00 18 1012.9
20260506220731 30 248 1.6 22.5 0.00 0.00 0.00 19 1012.8
20260506220231 30 136 0.0 9.7 0.00 0.00 0.00 19 1013.0
20260506215732 29 184 0.0 9.7 0.00 0.00 0.00 19 1013.1
20260506215457 29 137 0.0 6.4 0.00 0.00 0.00 19 1013.1
20260506214732 29 153 0.0 1.6 0.00 0.00 0.00 19 1013.2
20260506214456 29 209 0.0 8.0 0.00 0.00 0.00 19 1013.3
20260506213729 29 209 0.0 8.0 0.00 0.00 0.00 19 1013.4
20260506213230 28 208 4.8 14.5 0.00 0.00 0.00 20 1013.6
20260506212731 28 105 4.8 16.1 0.00 0.00 0.00 19 1013.5
20260506212447 28 201 6.4 17.7 0.00 0.00 0.00 20 1013.6
20260506211731 28 296 8.0 20.9 0.00 0.00 0.00 19 1013.8
20260506211453 29 261 4.8 20.9 0.00 0.00 0.00 19 1013.8
20260506210730 29 252 6.4 20.9 0.00 0.00 0.00 19 1013.9
20260506210227 29 204 4.8 16.1 0.00 0.00 0.00 19 1014.0
20260506205729 29 186 4.8 16.1 0.00 0.00 0.00 19 1014.0
20260506205228 29 186 4.8 14.5 0.00 0.00 0.00 19 1014.1
20260506204950 29 152 3.2 14.5 0.00 0.00 0.00 19 1014.1
20260506204458 29 186 1.6 14.5 0.00 0.00 0.00 19 1014.3
20260506203728 29 211 1.6 14.5 0.00 0.00 0.00 19 1014.3
20260506203228 28 121 0.0 9.7 0.00 0.00 0.00 19 1014.3
20260506202730 28 228 0.0 6.4 0.00 0.00 0.00 19 1014.3
20260506202230 28 271 1.6 11.3 0.00 0.00 0.00 20 1014.4
20260506201730 28 208 3.2 14.5 0.00 0.00 0.00 20 1014.5
20260506201226 28 254 4.8 14.5 0.00 0.00 0.00 19 1014.6
20260506200728 28 191 4.8 17.7 0.00 0.00 0.00 20 1014.5
20260506200226 27 189 3.2 17.7 0.00 0.00 0.00 20 1014.6
20260506195728 28 153 1.6 17.7 0.00 0.00 0.00 20 1014.6
20260506195227 27 94 0.0 3.2 0.00 0.00 0.00 20 1014.7
20260506194948 27 84 0.0 3.2 0.00 0.00 0.00 20 1014.8
20260506194228 27 48 0.0 0.0 0.00 0.00 0.00 20 1014.8
20260506193727 27 294 0.0 0.0 0.00 0.00 0.00 20 1014.9
20260506193227 27 292 0.0 0.0 0.00 0.00 0.00 20 1014.9
20260506192727 27 288 0.0 11.3 0.00 0.00 0.00 20 1015.1
20260506192227 27 305 0.0 11.3 0.00 0.00 0.00 20 1014.9
20260506191724 27 171 0.0 11.3 0.00 0.00 0.00 21 1015.2
20260506191446 27 222 3.2 12.9 0.00 0.00 0.00 21 1015.3
20260506190946 27 218 4.8 12.9 0.00 0.00 0.00 21 1015.3
20260506190456 27 25 3.2 11.3 0.00 0.00 0.00 21 1015.3
20260506185946 27 259 1.6 12.9 0.00 0.00 0.00 21 1015.3
20260506185223 27 257 0.0 12.9 0.00 0.00 0.00 21 1015.4
20260506184725 27 234 0.0 8.0 0.00 0.00 0.00 22 1015.4
20260506184225 27 229 1.6 9.7 0.00 0.00 0.00 22 1015.5
20260506183726 27 152 1.6 9.7 0.00 0.00 0.00 21 1015.5
20260506183456 26 276 1.6 9.7 0.00 0.00 0.00 21 1015.7
20260506182726 26 282 0.0 6.4 0.00 0.00 0.00 23 1015.7
20260506182444 26 257 0.0 16.1 0.00 0.00 0.00 22 1015.8
20260506181723 27 209 0.0 16.1 0.00 0.00 0.00 23 1015.8
20260506181223 26 232 0.0 3.2 0.00 0.00 0.00 24 1015.9
20260506180722 26 233 0.0 1.6 0.00 0.00 0.00 24 1015.9
20260506180223 26 244 0.0 1.6 0.00 0.00 0.00 24 1015.9
20260506175723 26 255 0.0 0.0 0.00 0.00 0.00 25 1015.9
20260506175223 26 241 0.0 4.8 0.00 0.00 0.00 25 1016.0
20260506174725 25 242 0.0 4.8 0.00 0.00 0.00 25 1016.1
20260506174224 25 244 1.6 14.5 0.00 0.00 0.00 26 1016.1
20260506173723 25 275 1.6 14.5 0.00 0.00 0.00 25 1016.2
20260506173225 25 285 0.0 9.7 0.00 0.00 0.00 26 1016.1
20260506172725 25 286 1.6 12.9 0.00 0.00 0.00 26 1016.1
20260506172219 25 236 1.6 12.9 0.00 0.00 0.00 26 1016.1
20260506171719 25 230 3.2 16.1 0.00 0.00 0.00 26 1016.1
20260506171219 25 229 3.2 16.1 0.00 0.00 0.00 26 1016.1
20260506170721 25 227 1.6 11.3 0.00 0.00 0.00 27 1016.1
20260506170221 25 250 0.0 3.2 0.00 0.00 0.00 27 1016.1
20260506165720 24 244 0.0 6.4 0.00 0.00 0.00 27 1016.2
20260506165221 24 244 0.0 6.4 0.00 0.00 0.00 28 1016.2
20260506164720 23 242 0.0 3.2 0.00 0.00 0.00 28 1016.2
20260506164220 23 242 0.0 1.6 0.00 0.00 0.00 28 1016.1
20260506163720 23 248 0.0 1.6 0.00 0.00 0.00 28 1016.1
20260506163221 23 247 0.0 1.6 0.00 0.00 0.00 28 1016.0
20260506162719 23 250 0.0 0.0 0.00 0.00 0.00 29 1015.9
20260506162219 23 250 0.0 3.2 0.00 0.00 0.00 29 1016.0
20260506161719 23 250 0.0 3.2 0.00 0.00 0.00 30 1015.8
20260506161447 23 249 0.0 1.6 0.00 0.00 0.00 29 1015.9
20260506160719 23 245 0.0 4.8 0.00 0.00 0.00 29 1015.9
20260506160219 23 246 0.0 6.4 0.00 0.00 0.00 29 1015.8
20260506155941 23 249 0.0 6.4 0.00 0.00 0.00 29 1015.8
20260506155221 23 257 0.0 0.0 0.00 0.00 0.00 30 1015.8
20260506154717 23 257 0.0 1.6 0.00 0.00 0.00 29 1015.8
20260506154216 23 257 0.0 1.6 0.00 0.00 0.00 30 1015.7
20260506153716 22 259 0.0 1.6 0.00 0.00 0.00 30 1015.8
20260506153216 22 275 0.0 1.6 0.00 0.00 0.00 30 1016.0
20260506152716 22 277 0.0 0.0 0.00 0.00 0.00 31 1015.9
20260506152214 21 277 0.0 1.6 0.00 0.00 0.00 32 1016.0